[[{"header":{"parameterUnit":"m.s-1","parameterCategory":1,"la1":30.2991,"la2":30.254,"lo1":-89.0895,"lo2":-89.0444,"dy":0.0017,"dx":0.0017,"nx":28,"ny":28,"refTime":"2024-07-18T03:00:00:Z","depth":0,"parameterNumber":2,"parameterNumberName":"U-component_of_WINDS"},"data":[0,0,0,0,0,0,0,0,0,0,0,0,0,0,0,0,0,0,0,0,0,0,0,0,0,0,0,0,0,0,0,0,0,0,0,0,0,0,0,0,0,0,0,0,0,0,0,0,0,0,0,0,0,0,0,0,0,0,1.1663,1.1664,0,1.1772,1.1773,1.1775,1.178,1.1778,1.1777,1.1776,1.1889,1.1893,1.1898,0,0,0,0,0,0,0,0,0,0,0,0,0,1.1462,1.1466,1.1663,1.1664,1.1666,1.1772,1.1774,1.1775,1.178,1.1778,1.1777,1.1775,1.1888,1.1893,1.1898,0,0,0,0,0,0,0,0,0,0,0,0,0,1.1558,1.1467,1.1663,1.1681,1.1684,1.1772,1.1774,1.1775,1.178,1.1778,1.1776,1.1774,1.1886,1.1892,1.1899,1.1977,0,0,1.1918,1.1921,0,0,0,0,0,0,0,0,1.1553,1.1566,1.1677,1.168,1.1683,1.176,1.1744,1.1843,1.1781,1.1744,1.1776,1.1774,1.1848,1.1857,1.1882,1.1982,1.1987,1.1919,1.1922,1.1925,1.1927,0,0,0,0,0,0,0,1.1546,1.1561,1.1706,1.1679,1.1682,1.1685,1.1696,1.1763,1.1805,1.1747,1.1747,1.176,1.1849,1.1876,1.1885,1.1988,1.1918,1.1924,1.1928,1.193,1.2161,1.2163,0,0,0,0,0,0,1.1536,1.1555,1.1703,1.171,1.1612,1.169,1.1703,1.1737,1.1805,1.1813,1.1762,1.176,1.1866,1.1878,1.1889,1.1987,1.1925,1.1931,1.1935,1.2159,1.2162,1.2164,0,0,0,0,0,0,1.1531,1.1549,1.1698,1.1633,1.1652,1.1695,1.1734,1.1741,1.1767,1.1816,1.1824,1.1781,1.1865,1.188,1.1955,1.1991,1.1934,1.194,1.2156,1.216,1.2163,1.2181,0,0,0,0,0,0,1.1525,1.1547,1.1576,1.1633,1.1655,1.1762,1.1736,1.1744,1.1778,1.1777,1.1836,1.1844,1.1865,1.1946,1.1962,1.1998,1.1945,1.2153,1.2158,1.2162,1.2178,1.2185,1.2191,0,0,0,0,0,1.1518,1.1576,1.1577,1.1595,1.1692,1.1764,1.1777,1.1799,1.1781,1.1811,1.1843,1.1842,1.1984,1.1954,1.1971,1.201,1.2151,1.2157,1.2162,1.2175,1.2183,1.2191,0,0,0,0,0,0,1.1522,1.1584,1.1586,1.1664,1.1709,1.1764,1.1803,1.1807,1.1858,1.1854,1.188,1.1894,1.1969,1.1997,1.1962,1.2091,1.2066,1.2075,1.207,1.2078,1.2085,1.2077,1.195,0,0,0,0,0,1.1532,1.1584,1.1636,1.17,1.1722,1.1759,1.1791,1.1804,1.1852,1.1871,1.1908,1.1954,1.201,1.2046,1.2099,1.2182,1.2196,1.2218,1.2225,1.223,1.2237,1.2286,1.2297,1.2181,1.2181,1.2181,0,0,1.1553,1.1593,1.1624,1.1702,1.1738,1.1792,1.1775,1.1832,1.1874,1.1879,1.1953,1.1983,1.2037,1.2117,1.2154,1.2143,1.2273,1.2237,1.224,1.2245,1.2293,1.2304,1.2313,1.2185,1.2184,1.2184,0,0,1.1619,1.1654,1.1713,1.175,1.1805,1.1829,1.1843,1.1899,1.1919,1.1994,1.2,1.205,1.2144,1.2183,1.2216,1.23,1.2302,1.2317,1.2352,1.2399,1.2408,1.2417,1.2448,1.2459,1.2324,1.2325,1.2325,0,1.1638,1.172,1.1742,1.1801,1.1836,1.1844,1.1905,1.194,1.201,1.2034,1.202,1.2141,1.2178,1.2268,1.2289,1.2315,1.2333,1.231,1.2405,1.2414,1.2422,1.2452,1.2464,1.2326,1.2326,1.2326,1.2326,0,1.1742,1.1798,1.1839,1.1907,1.1947,1.2006,1.2039,1.2077,1.2087,1.2114,1.2191,1.2236,1.23,1.2323,1.2334,1.2416,1.2408,1.2399,1.2375,1.2434,1.2463,1.2475,1.2328,1.2328,1.2327,1.2327,0,0,1.1811,1.1893,1.1908,1.194,1.2002,1.2047,1.2108,1.2171,1.2204,1.2252,1.2305,1.2386,1.238,1.2417,1.2432,1.2474,1.254,1.2461,1.2462,1.2475,1.2637,1.2643,1.2656,1.2542,1.2545,1.2547,1.2633,0,1.1886,1.1993,1.2017,1.211,1.2164,1.2174,1.2228,1.2273,1.23,1.2351,1.2382,1.2439,1.2425,1.2448,1.2489,1.2523,1.2573,1.2517,1.2593,1.2596,1.258,1.2671,1.2678,1.2757,1.2644,1.2646,1.2648,0,1.1986,1.2038,1.2136,1.2195,1.2218,1.2265,1.2326,1.2374,1.2427,1.2444,1.2487,1.2499,1.2565,1.2537,1.2629,1.2591,1.2624,1.2646,1.2649,1.2657,1.2625,1.2683,1.2782,1.2794,1.2666,1.2664,1.2663,0,1.2029,1.2123,1.2195,1.2222,1.2291,1.2325,1.2355,1.2406,1.2443,1.2497,1.2522,1.2582,1.2616,1.2663,1.2693,1.2669,1.2784,1.2757,1.2801,1.28,1.2824,1.2823,1.2931,1.2844,1.2844,1.2844,1.2844,0,1.2109,1.217,1.2216,1.226,1.2329,1.2356,1.2424,1.2455,1.2501,1.2553,1.2565,1.2614,1.2649,1.2703,1.2727,1.2801,1.2816,1.2833,1.2838,1.2832,1.283,1.2854,1.2849,1.2847,1.2846,1.2846,1.2845,0,1.2168,1.2201,1.2281,1.2341,1.2357,1.2406,1.2458,1.2502,1.253,1.2596,1.2613,1.2658,1.2723,1.2757,1.2837,1.2853,1.2937,1.2939,1.2919,1.2922,1.2964,1.296,1.3092,1.3112,1.3011,1.3012,1.3013,0,1.2218,1.2265,1.233,1.2366,1.2397,1.2454,1.2492,1.2522,1.2562,1.2627,1.2664,1.273,1.2784,1.2887,1.2928,1.2991,1.2995,1.3037,1.3004,1.2997,1.2997,1.2994,1.3,1.3043,1.3044,1.3044,1.3045,0,1.2303,1.2317,1.2372,1.2433,1.2478,1.2528,1.2577,1.2606,1.2644,1.2688,1.2755,1.2797,1.288,1.2946,1.3012,1.3045,1.3053,1.3055,1.3069,1.3063,1.305,1.3059,1.2936,1.3052,1.3051,1.3051,1.305,1.305,1.236,1.2403,1.2456,1.2517,1.2557,1.2603,1.2649,1.2684,1.2739,1.2809,1.2824,1.2895,1.295,1.3039,1.3075,1.3132,1.3123,1.3143,1.3148,1.3152,1.3155,1.3041,1.3144,1.3144,1.3144,1.3144,1.3143,0,1.2446,1.2482,1.2537,1.2606,1.2655,1.2657,1.2713,1.2753,1.2815,1.2865,1.2919,1.2997,1.3061,1.3108,1.3174,1.3211,1.3216,1.3228,1.3225,1.3233,1.3158,1.314,1.3222,1.3222,1.3222,1.3222,1.3222,1.3222,1.2497,1.2571,1.2592,1.2687,1.2723,1.2792,1.2824,1.2867,1.2907,1.2994,1.3047,1.3077,1.3127,1.3197,1.3257,1.327,1.3294,1.3305,1.3318,1.3247,1.3238,1.323,1.3214,1.331,1.331,1.3389,1.339,1.339]},{"header":{"parameterUnit":"m.s-1","parameterCategory":1,"la1":30.2991,"la2":30.254,"lo1":-89.0895,"lo2":-89.0444,"dy":0.0017,"dx":0.0017,"nx":28,"ny":28,"refTime":"2024-07-18T03:00:00:Z","depth":0,"parameterNumber":3,"parameterNumberName":"V-component_of_WINDS"},"data":[0,0,0,0,0,0,0,0,0,0,0,0,0,0,0,0,0,0,0,0,0,0,0,0,0,0,0,0,0,0,0,0,0,0,0,0,0,0,0,0,0,0,0,0,0,0,0,0,0,0,0,0,0,0,0,0,0,0,-1.661,-1.661,0,-1.6631,-1.6632,-1.6632,-1.6631,-1.6631,-1.6631,-1.6631,-1.6652,-1.6652,-1.6653,0,0,0,0,0,0,0,0,0,0,0,0,0,-1.6566,-1.6566,-1.661,-1.661,-1.661,-1.6631,-1.6632,-1.6632,-1.6631,-1.6631,-1.6631,-1.663,-1.6651,-1.6652,-1.6653,0,0,0,0,0,0,0,0,0,0,0,0,0,-1.6586,-1.6567,-1.661,-1.6612,-1.6613,-1.6631,-1.6632,-1.6632,-1.6632,-1.6631,-1.6631,-1.663,-1.6651,-1.6652,-1.6653,-1.667,0,0,-1.6657,-1.6658,0,0,0,0,0,0,0,0,-1.6585,-1.6587,-1.6612,-1.6612,-1.6613,-1.6628,-1.6624,-1.6645,-1.6632,-1.6624,-1.6631,-1.663,-1.6644,-1.6646,-1.6651,-1.6671,-1.6672,-1.6657,-1.6658,-1.6659,-1.6659,0,0,0,0,0,0,0,-1.6583,-1.6586,-1.6618,-1.6612,-1.6613,-1.6612,-1.6614,-1.6628,-1.6636,-1.6625,-1.6625,-1.6628,-1.6644,-1.665,-1.6651,-1.6672,-1.6657,-1.6658,-1.6659,-1.666,-1.6706,-1.6706,0,0,0,0,0,0,-1.6581,-1.6585,-1.6617,-1.6619,-1.6597,-1.6613,-1.6616,-1.6624,-1.6636,-1.6638,-1.6628,-1.6628,-1.6648,-1.665,-1.6652,-1.6672,-1.6659,-1.666,-1.666,-1.6705,-1.6706,-1.6707,0,0,0,0,0,0,-1.658,-1.6584,-1.6617,-1.6602,-1.6606,-1.6614,-1.6623,-1.6624,-1.663,-1.6639,-1.664,-1.6632,-1.6647,-1.665,-1.6665,-1.6672,-1.666,-1.6661,-1.6705,-1.6706,-1.6706,-1.6711,0,0,0,0,0,0,-1.6579,-1.6584,-1.6591,-1.6602,-1.6607,-1.663,-1.6624,-1.6625,-1.6632,-1.6632,-1.6643,-1.6644,-1.6647,-1.6664,-1.6667,-1.6674,-1.6662,-1.6704,-1.6705,-1.6706,-1.671,-1.6712,-1.6713,0,0,0,0,0,-1.6578,-1.6591,-1.6591,-1.6595,-1.6616,-1.663,-1.6633,-1.6637,-1.6633,-1.6639,-1.6645,-1.6644,-1.6671,-1.6665,-1.6669,-1.6676,-1.6704,-1.6705,-1.6706,-1.671,-1.6712,-1.6713,0,0,0,0,0,0,-1.658,-1.6593,-1.6593,-1.661,-1.6619,-1.663,-1.6639,-1.6639,-1.6649,-1.6648,-1.6652,-1.6654,-1.6669,-1.6674,-1.6667,-1.6692,-1.6687,-1.6689,-1.6688,-1.669,-1.6692,-1.669,-1.6663,0,0,0,0,0,-1.6582,-1.6594,-1.6604,-1.6619,-1.6623,-1.663,-1.6637,-1.6639,-1.6648,-1.6652,-1.6659,-1.6667,-1.6678,-1.6684,-1.6695,-1.6711,-1.6713,-1.6718,-1.672,-1.6721,-1.6722,-1.673,-1.6732,-1.671,-1.671,-1.671,0,0,-1.6587,-1.6596,-1.6603,-1.6619,-1.6627,-1.6638,-1.6633,-1.6646,-1.6654,-1.6654,-1.6668,-1.6673,-1.6683,-1.6699,-1.6706,-1.6704,-1.6729,-1.6722,-1.6723,-1.6724,-1.6732,-1.6734,-1.6736,-1.6711,-1.6711,-1.6711,0,0,-1.6603,-1.6611,-1.6623,-1.6631,-1.6642,-1.6646,-1.6649,-1.666,-1.6664,-1.6679,-1.6679,-1.6688,-1.6706,-1.6713,-1.6719,-1.6736,-1.6735,-1.674,-1.6747,-1.6755,-1.6757,-1.6758,-1.6763,-1.6765,-1.6741,-1.6741,-1.6741,0,-1.6607,-1.6625,-1.663,-1.6642,-1.6648,-1.665,-1.6662,-1.6669,-1.6682,-1.6687,-1.6684,-1.6706,-1.6713,-1.673,-1.6734,-1.6739,-1.6742,-1.6738,-1.6756,-1.6758,-1.6759,-1.6764,-1.6766,-1.6741,-1.6741,-1.6741,-1.6741,0,-1.663,-1.6642,-1.6651,-1.6664,-1.6672,-1.6684,-1.669,-1.6697,-1.6699,-1.6704,-1.6718,-1.6727,-1.6738,-1.6742,-1.6744,-1.6759,-1.6757,-1.6755,-1.675,-1.6762,-1.6766,-1.6768,-1.6742,-1.6742,-1.6742,-1.6742,0,0,-1.6646,-1.6662,-1.6665,-1.6671,-1.6683,-1.6692,-1.6704,-1.6716,-1.6722,-1.6731,-1.6741,-1.6756,-1.6754,-1.6761,-1.6763,-1.6771,-1.6783,-1.6768,-1.6768,-1.6769,-1.6799,-1.68,-1.6802,-1.6783,-1.6783,-1.6783,-1.6798,0,-1.6662,-1.6683,-1.6688,-1.6706,-1.6717,-1.6718,-1.6729,-1.6737,-1.6742,-1.6751,-1.6756,-1.6766,-1.6763,-1.6767,-1.6775,-1.678,-1.6789,-1.6779,-1.6791,-1.6791,-1.6787,-1.6805,-1.6806,-1.6819,-1.68,-1.6801,-1.6801,0,-1.6683,-1.6693,-1.6712,-1.6723,-1.6728,-1.6737,-1.6748,-1.6757,-1.6766,-1.6769,-1.6776,-1.6778,-1.6789,-1.6784,-1.68,-1.6793,-1.6798,-1.6801,-1.6802,-1.6803,-1.6796,-1.6805,-1.6824,-1.6826,-1.6804,-1.6804,-1.6803,0,-1.6691,-1.671,-1.6724,-1.6729,-1.6742,-1.6748,-1.6754,-1.6763,-1.6769,-1.6779,-1.6783,-1.6793,-1.6799,-1.6807,-1.6811,-1.6807,-1.6826,-1.6821,-1.6828,-1.6828,-1.6831,-1.6831,-1.685,-1.6836,-1.6836,-1.6836,-1.6836,0,-1.6708,-1.6719,-1.6728,-1.6736,-1.6749,-1.6754,-1.6767,-1.6772,-1.678,-1.6789,-1.6791,-1.6799,-1.6805,-1.6814,-1.6817,-1.6829,-1.6832,-1.6834,-1.6834,-1.6833,-1.6833,-1.6836,-1.6835,-1.6837,-1.6837,-1.6836,-1.6836,0,-1.6719,-1.6726,-1.6741,-1.6752,-1.6755,-1.6764,-1.6773,-1.6781,-1.6786,-1.6797,-1.68,-1.6807,-1.6818,-1.6823,-1.6836,-1.6839,-1.6852,-1.6852,-1.6849,-1.6849,-1.6855,-1.6854,-1.6877,-1.6879,-1.6864,-1.6864,-1.6864,0,-1.6728,-1.6738,-1.675,-1.6756,-1.6762,-1.6772,-1.6779,-1.6785,-1.6791,-1.6803,-1.6809,-1.682,-1.6829,-1.6845,-1.6852,-1.6861,-1.6862,-1.6869,-1.6863,-1.6861,-1.6861,-1.686,-1.686,-1.6869,-1.687,-1.687,-1.687,0,-1.6744,-1.6747,-1.6757,-1.6768,-1.6776,-1.6785,-1.6794,-1.6799,-1.6806,-1.6813,-1.6824,-1.6831,-1.6845,-1.6855,-1.6865,-1.6871,-1.6871,-1.6872,-1.6874,-1.6872,-1.6869,-1.687,-1.6851,-1.6871,-1.6871,-1.6871,-1.6871,-1.6871,-1.6754,-1.6762,-1.6772,-1.6783,-1.679,-1.6798,-1.6806,-1.6812,-1.6822,-1.6833,-1.6836,-1.6847,-1.6856,-1.687,-1.6876,-1.6884,-1.6883,-1.6886,-1.6886,-1.6887,-1.6887,-1.6869,-1.6886,-1.6886,-1.6886,-1.6886,-1.6886,0,-1.677,-1.6776,-1.6786,-1.6798,-1.6807,-1.6808,-1.6817,-1.6824,-1.6834,-1.6843,-1.6851,-1.6864,-1.6874,-1.6881,-1.6891,-1.6897,-1.6897,-1.6899,-1.6898,-1.6899,-1.6888,-1.6885,-1.6898,-1.6898,-1.6898,-1.6898,-1.6898,-1.6898,-1.6778,-1.6792,-1.6795,-1.6812,-1.6818,-1.683,-1.6835,-1.6842,-1.6849,-1.6863,-1.6872,-1.6876,-1.6884,-1.6895,-1.6904,-1.6906,-1.6909,-1.6911,-1.6912,-1.6901,-1.69,-1.6899,-1.6896,-1.6912,-1.6912,-1.6923,-1.6923,-1.6923]}]]